STARLINK-34281

Satellite information

Favourite Embed

Satellite Type and Status

PAYLOADIN ORBIT

Key statistics

Satellite STARLINK-34281 at a glance.

Uptime

192

Days in orbit

Revolutions

≈ 15.3

Per day

Orbit

LEO

Low Earth Orbit

Inclination

53.1

Latest

Satellite identification and parameters

Extended collection of information and parameters for STARLINK-34281.

Object identification

Identified? True

Debris? False

Object name: STARLINK-34281

International designator: 2025-120E

Object number (NORAD): 64260

Object ID (CCSDS): 64260

Country: UNITED STATES OF AMERICA (US)

Current information (Y/N): Y

RCS size: LARGE

Orbital parameters

Period: 94.1 minutes

Inclination: 53.1487 deg

SMA: 6853.085 km

Apoapsis: 476.759 km

Periapsis: 473.141 km

RAAN: 166.2997 deg

Eccentricy: 0.00026395

Argument of periapsis: 86.8537 deg

Mean anomaly: 273.2766 deg

Mean motion: 15.30289455 rev/day

Mean motion (dot): 0.00061521 rev/day2

B* drag term: 0.0020663154 1/REarth

Two-line elements (TLE)

Creation date: Dec. 11, 2025, 7:14 p.m.

Reference frame: TEME

Reference center: EARTH

Epoch: Dec. 11, 2025, 11:49 a.m. UTC

TLE line 0: 0 STARLINK-34281

TLE line 1: 1 64260U 25120E 25345.49272760 .00061521 00000-0 20663-2 0 9998

TLE line 2: 2 64260 53.1487 166.2997 0002640 86.8537 273.2766 15.30289455 30364

Live tracking on map

Real-time ground track for satellite STARLINK-34281.

In-orbit conjunctions

There are no conjunctions computed for STARLINK-34281, at the moment. Check back to stay up to date, as we update our databases every day.

Go to all conjunctions

Associated space launch

A batch of 27 satellites for the Starlink mega-constellation - SpaceX's project for space-based Internet communication system.

STARLINK-34281 was lifted into orbit during the mission ‘Falcon 9 Block 5 | Starlink Group 11-22’, on board a Falcon 9 space rocket.

The launch took place on June 4, 2025, 11:40 p.m. from Space Launch Complex 4E.

For more information about the launch, click the button.

Launch to space Falcon 9 Block 5 | Starlink Group 11-22
Falcon 9 Block 5 | Starlink Group 11-22

Agency: SpaceX

Status: Launch Successful

Launch date: June 4, 2025, 11:40 p.m. UTC

Rocket: Falcon 9

Launch pad: Space Launch Complex 4E

Location: Vandenberg SFB, CA, USA

...

Latest news about this satellite

News about space launch
Live coverage: SpaceX to launch 50th Starlink mission of 2025 on Wednesday afternoon Falcon 9 flight from California

The Starlink 11-22 mission is SpaceX’s 68th launch of the year. Teams are targeting liftoff from pad 4 East at Vandenberg Space Force Base at 4:28 p.m. PDT (7:28 p.m. EDT, 2338 UTC).

News about space launch
Launch Roundup: Falcon 9 to launch crewed mission, Rocket Lab to launch 65th Electron

SpaceX continues to dominate the launch manifest with five missions this week, including a crewed… The post Launch Roundup: Falcon 9 to launch crewed mission, Rocket Lab to launch 65th Electron appeared first on NASASpaceFlight.com.


Newsletter sign-up

Weekly statistics, charts and insights to help you stay on top of the space industry.